Change the Weather History Date:

Friday, July 4, 2014

  Actual Average Record
Temperature  
Mean Temperature 63 °F -  
Max Temperature 84 °F 76 °F 89 °F (2001)
Min Temperature 42 °F 38 °F 28 °F (1973)
Degree Days  
Heating Degree Days 2    
Growing Degree Days 13 (Base 50)    
Moisture  
Dew Point 44 °F    
Average Humidity 64    
Maximum Humidity 93    
Minimum Humidity 21    
Precipitation  
Precipitation 0.00 in - - ()
Sea Level Pressure  
Sea Level Pressure 30.26 in    
Wind  
Wind Speed 6 mph (SSE)    
Max Wind Speed 12 mph    
Max Gust Speed -    
Visibility 10 miles    
Events Thunderstorm    
Averages and records for this station are not official NWS values.
T = Trace of Precipitation, MM = Missing Value Source: NWS Daily Summary

Daily Weather History Graph

Daily Weather History Graph

Search for Another Location

Airport or City:

Trip Planner

Search our weather history database for the weather conditions in past years. The results will help you decide how hot, cold, wet, or windy it might be!

Date:

Astronomy

Jul. 04, 2014 Rise Set
Actual Time 5:47 AM MDT 9:07 PM MDT
Civil Twilight 5:11 AM MDT 9:42 PM MDT
Nautical Twilight 4:25 AM MDT 10:28 PM MDT
Astronomical Twilight 3:27 AM MDT 11:26 PM MDT
Moon 1:00 PM MDT (7/4) 12:18 AM MDT (7/4)
Length of Visible Light 16h 31m
Length of Day
15h 20m
Waxing Crescent, 43% of the Moon is Illuminated
Jul 4
Waxing Crescent
Jul 5
First Quarter
Jul 12
Full
Jul 18
Last Quarter
Jul 26
New

Hourly Weather History & Observations

Time (MDT) Temp. Windchill Dew Point Humidity Pressure Visibility Wind Dir Wind Speed Gust Speed Precip Events Conditions
12:15 AM 55.4 °F - 44.6 °F 67% 30.28 in 10.0 mi SSW 8.1 mph - N/A   Clear
12:35 AM 57.2 °F - 44.6 °F 63% 30.27 in 10.0 mi South 10.4 mph - N/A   Partly Cloudy
12:55 AM 57.2 °F - 44.6 °F 63% 30.28 in 10.0 mi South 5.8 mph - N/A   Partly Cloudy
1:15 AM 57.2 °F - 46.4 °F 67% 30.27 in 10.0 mi South 8.1 mph - N/A   Partly Cloudy
1:35 AM 55.4 °F - 46.4 °F 72% 30.27 in 10.0 mi South 3.5 mph - N/A   Clear
1:55 AM 53.6 °F - 44.6 °F 72% 30.27 in 10.0 mi ESE 4.6 mph - N/A   Clear
2:15 AM 55.4 °F - 44.6 °F 67% 30.27 in 10.0 mi South 8.1 mph - N/A   Clear
2:35 AM 51.8 °F - 44.6 °F 76% 30.27 in 10.0 mi SSE 6.9 mph - N/A   Clear
2:55 AM 53.6 °F - 44.6 °F 72% 30.27 in 10.0 mi SSE 8.1 mph - N/A   Clear
3:15 AM 53.6 °F - 44.6 °F 72% 30.27 in 10.0 mi SSE 8.1 mph - N/A   Clear
3:35 AM 51.8 °F - 44.6 °F 76% 30.27 in 10.0 mi NNW 3.5 mph - N/A   Scattered Clouds
3:55 AM 53.6 °F - 44.6 °F 72% 30.27 in 10.0 mi ESE 5.8 mph - N/A   Partly Cloudy
4:15 AM 51.8 °F - 44.6 °F 76% 30.28 in 10.0 mi WNW 4.6 mph - N/A   Scattered Clouds
4:35 AM 53.6 °F - 44.6 °F 72% 30.28 in 10.0 mi Calm Calm - N/A   Partly Cloudy
4:55 AM 48.2 °F - 42.8 °F 82% 30.29 in 10.0 mi NNE 4.6 mph - N/A   Clear
5:15 AM 46.4 °F 45.2 °F 42.8 °F 87% 30.29 in 10.0 mi NE 3.5 mph - N/A   Clear
5:35 AM 46.4 °F 44.3 °F 41.0 °F 81% 30.29 in 10.0 mi North 4.6 mph - N/A   Clear
5:55 AM 44.6 °F 40.2 °F 42.8 °F 93% 30.29 in 10.0 mi North 8.1 mph - N/A   Clear
6:15 AM 42.8 °F 38.0 °F 41.0 °F 93% 30.30 in 10.0 mi NNW 8.1 mph - N/A   Clear
6:35 AM 46.4 °F 44.3 °F 42.8 °F 87% 30.30 in 10.0 mi North 4.6 mph - N/A   Clear
6:43 AM 46.4 °F - 42.8 °F 87% 30.30 in 10.0 mi Calm Calm - N/A   Clear
7:51 AM 53.6 °F - 44.6 °F 72% 30.31 in 10.0 mi Calm Calm - N/A   Clear
8:55 AM 60.8 °F - 46.4 °F 59% 30.30 in 10.0 mi Calm Calm - N/A   Clear
9:54 AM 64.4 °F - 46.4 °F 52% 30.30 in 10.0 mi Calm Calm - N/A   Clear
10:51 AM 68.0 °F - 46.4 °F 46% 30.28 in 10.0 mi SSE 5.8 mph - N/A   Clear
11:55 AM 75.2 °F - 48.2 °F 38% 30.27 in 10.0 mi Calm Calm - N/A   Clear
1:51 PM 80.6 °F - 44.6 °F 28% 30.23 in 10.0 mi NW 8.1 mph - N/A   Scattered Clouds
2:59 PM 84.2 °F - 42.8 °F 23% 30.20 in 10.0 mi South 10.4 mph - N/A   Scattered Clouds
3:55 PM 78.8 °F - 35.6 °F 21% 30.18 in 10.0 mi West 11.5 mph - N/A Thunderstorm Scattered Clouds
4:58 PM 71.6 °F - 44.6 °F 38% 30.20 in 10.0 mi WSW 8.1 mph - N/A   Mostly Cloudy
5:57 PM 66.2 °F - 46.4 °F 49% 30.24 in 10.0 mi South 10.4 mph - N/A   Mostly Cloudy
8:55 PM 62.6 °F - 46.4 °F 55% 30.21 in 10.0 mi WSW 8.1 mph - N/A   Clear
9:15 PM 62.6 °F - 44.6 °F 52% 30.21 in 10.0 mi SSW 8.1 mph - N/A   Clear
9:35 PM 60.8 °F - 46.4 °F 59% 30.21 in 10.0 mi Calm Calm - N/A   Clear
9:55 PM 60.8 °F - 44.6 °F 55% 30.21 in 10.0 mi Calm Calm - N/A   Clear
10:15 PM 57.2 °F - 44.6 °F 63% 30.22 in 10.0 mi East 3.5 mph - N/A   Clear
10:35 PM 60.8 °F - 44.6 °F 55% 30.23 in 10.0 mi Calm Calm - N/A   Clear
10:55 PM 59.0 °F - 44.6 °F 59% 30.23 in 10.0 mi Calm Calm - N/A   Clear
11:15 PM 55.4 °F - 44.6 °F 67% 30.23 in 10.0 mi East 3.5 mph - N/A   Clear
11:35 PM 53.6 °F - 44.6 °F 72% 30.24 in 10.0 mi ESE 8.1 mph - N/A   Clear
11:55 PM 55.4 °F - 44.6 °F 67% 30.24 in 10.0 mi Calm Calm - N/A   Clear